Tracking 19250 objects as of 23-Sep-2018
HD Live streaming from Space Station
objects crossing your sky now

FENGYUN 1C DEB

Track FENGYUN 1C DEB now!
10-day predictions


NORAD ID: 32178
Int'l Code: 1999-025CTY
Perigee: 780.1 km
Apogee: 938.0 km
Inclination: 100.3 °
Period: 102.0 minutes
Semi major axis: 7230 km
RCS: 0.0128 m2 (small)
Launch date: May 10, 1999
Source: People's Republic of China (PRC)
Launch site: Taiyaun Space Center, China (TSC)

Note: This is SATELLITE DEBRIS
aabbcc
Your satellite tracking list
Your tracking list is empty




NASA's NSSDC Master Catalog

Two Line Element Set (TLE):
1 32178U 99025CTY 18262.01310437  .00000295  00000-0  18144-3 0  9991
2 32178 100.2693 183.9121 0109159 293.5207  65.4521 14.12189336575178
Source of the keplerian elements: AFSPC